Location: Chagrin Falls Park
(41.4139°N, 81.3865°W)
Time: 18:09:51
(UTC+00:00)

Lacrosse 5 - Pass Details

Date: 29 October 2020
Orbit: 716 x 723 km, 57.0° (Epoch: 06 November)

Event Time Altitude Azimuth Distance (km) Brightness Sun altitude
Rises 23:08:00 0° 306° (NW) 3,122 5.9 -8.9°
Reaches altitude 10° 23:11:41 10° 333° (NNW) 2,202 4.6 -9.6°
Maximum altitude 23:14:08 13° 2° (N) 1,976 4.0 -10.0°
Drops below altitude 10° 23:16:36 10° 31° (NNE) 2,203 4.0 -10.5°
Enters shadow 23:17:47 - 42° (NE) 2,446 4.2 -10.7°
